Wind_Speed
11 9 7 7 9 6 7 11 12 12 13 17 18 19 19 18 16 15 16 15 15 11 4 4 7 6 7 6 7 9 6 4 2 3 2 4 6 7 6 8 10 12 12
12 9 7 9 10 5 9 11 10 12 13 17 19 20 20 19 18 14 14 15 18 18 14 12 12 10 10 8 6 6 7 5 2 5 3 6 9 8 10 12 14 17 18
13 11 9 12 9 5 8 8 10 11 13 14 16 21 20 19 18 17 17 17 17 17 16 16 16 15 13 9 10 8 7 6 5 7 6 6 6 8 12 13 14 15 15
14 13 10 12 10 7 7 9 11 9 11 13 16 18 18 18 18 16 16 16 17 18 18 18 16 15 14 13 14 12 11 11 9 10 12 8 7 6 6 9 12 12 14
13 12 11 13 11 8 8 7 9 9 10 11 13 13 15 15 16 15 16 15 16 18 20 21 19 17 15 12 11 11 9 9 10 11 10 8 6 4 4 3 11 12 13
12 12 12 12 13 9 9 8 8 8 10 11 13 12 13 14 12 11 12 13 13 13 12 16 19 23 23 21 17 14 11 8 10 11 10 9 7 5 5 7 9 3 3
9 11 13 14 12 9 10 7 7 9 9 11 13 12 12 14 13 14 15 13 13 14 15 14 15 12 14 15 15 18 20 19 13 11 14 12 9 7 7 6 4 5 7
10 4 11 10 12 11 11 8 7 8 10 10 12 10 11 12 12 13 13 12 13 14 15 13 12 13 13 13 15 19 18 15 12 10 11 11 12 11 8 5 7 11 10
6 4 4 7 14 13 14 11 8 8 10 10 10 9 9 8 6 8 11 11 11 11 13 12 8 8 10 9 10 11 12 15 16 16 15 14 12 8 7 4 5 10 7
8 5 4 2 12 12 15 15 11 9 10 12 12 10 9 5 4 5 8 10 11 9 9 8 9 7 6 8 8 8 9 8 5 6 8 10 11 10 9 9 12 7 8
7 4 1 4 7 12 16 15 15 13 12 13 12 9 5 6 4 4 9 7 6 10 10 7 7 6 5 5 5 7 6 5 3 4 2 3 7 9 12 8 13 12 14
5 8 7 7 7 11 14 16 14 16 16 14 13 7 6 6 5 3 4 7 8 11 11 6 6 7 7 7 8 7 3 3 6 7 9 9 8 11 8 10 12 11 11
9 10 11 11 11 10 12 14 17 18 17 14 9 8 5 7 7 6 6 5 6 8 6 9 9 10 10 8 7 7 8 11 6 10 9 7 4 7 3 3 2 6 7
11 10 11 12 12 11 11 11 13 13 11 10 9 8 7 7 8 9 7 6 7 8 7 5 5 4 5 4 4 6 7 6 10 9 7 4 2 5 6 6 4 5 8
12 11 12 13 14 14 14 12 10 8 6 9 8 7 5 5 4 5 6 4 2 3 4 3 4 6 6 4 3 4 5 6 6 6 7 6 4 3 2 3 5 8 4
12 10 11 13 12 14 17 17 14 12 10 8 7 5 4 2 2 5 4 3 3 5 6 11 5 1 4 5 2 1 4 3 4 7 6 6 6 5 7 5 5 6 5
12 12 12 12 11 11 11 11 11 11 8 6 4 4 4 4 4 4 3 3 5 6 7 13 3 2 3 4 5 6 8 5 2 4 4 2 4 2 3 6 4 7 5
12 15 14 13 13 13 14 13 13 13 10 6 6 6 6 4 3 3 3 3 4 7 6 8 3 2 3 4 4 6 6 2 2 2 3 5 4 6 8 6 8 3 10
13 9 9 9 10 9 8 9 9 13 15 10 7 5 4 3 2 2 3 5 10 15 10 2 3 2 2 3 1 3 6 7 7 6 4 7 7 6 13 5 7 4 5
12 13 12 12 10 10 9 10 9 7 10 11 13 11 8 4 5 5 6 6 11 13 7 4 2 4 5 5 5 4 5 9 9 7 6 7 8 5 9 11 9 9 8
13 10 6 9 8 8 8 8 5 4 7 5 11 9 11 8 12 16 16 13 9 6 5 5 6 7 5 8 9 8 7 9 13 8 8 9 10 9 9 11 10 11 12
10 10 8 10 6 4 5 3 2 1 1 4 15 12 8 10 7 9 5 5 6 6 4 6 7 8 9 10 10 7 8 8 12 15 15 10 10 11 11 12 13 13 14
6 5 4 5 5 5 1 6 6 5 8 6 3 13 11 9 8 10 8 8 6 5 7 6 7 9 10 10 9 9 11 12 13 13 7 6 8 11 12 14 15 17 14
6 15 15 11 6 3 4 5 9 7 6 13 8 13 11 6 10 9 9 7 8 10 11 12 12 12 12 11 11 11 13 15 14 14 13 9 10 13 16 18 18 18 17
10 10 12 10 5 4 5 7 6 13 11 4 4 3 15 5 13 10 12 10 10 8 6 12 18 16 16 17 16 15 17 16 12 13 13 11 14 16 20 19 20 18 15
7 6 5 6 7 9 13 9 6 7 4 5 5 5 5 7 13 10 2 8 10 9 12 10 14 21 13 21 18 6 11 20 23 23 21 18 17 18 19 21 20 21 20
Wind_Direction
169 166 145 126 98 61 52 55 40 44 39 45 43 44 40 38 42 46 47 51 60 69 77 223 250 247 226 229 237 260 228 214 205 145 107 43 25 12 41 64 70 68 67
153 151 142 126 98 74 65 52 51 52 44 49 51 54 51 48 46 49 56 60 61 56 54 61 60 67 84 92 106 107 105 106 123 116 107 91 78 76 84 83 78 74 67
152 161 168 126 105 89 79 71 67 60 56 50 58 58 56 52 51 51 62 66 65 66 67 66 59 59 61 68 76 72 69 75 85 128 122 123 116 104 94 87 77 75 74
161 170 142 123 116 111 110 92 81 69 67 59 61 59 61 63 55 53 60 62 61 60 60 62 65 72 74 74 81 85 90 90 88 93 94 94 98 101 100 92 80 80 77
163 159 146 137 132 127 117 105 94 87 74 73 68 63 67 70 68 64 61 63 65 66 65 65 63 64 64 72 80 79 86 94 101 103 95 96 89 83 86 113 103 91 78
170 162 156 146 141 140 129 124 107 99 89 85 79 79 75 81 80 71 77 75 72 74 74 78 64 67 68 68 72 75 82 93 98 97 98 93 79 84 92 115 122 131 104
180 184 164 170 153 149 140 126 124 109 102 94 91 86 86 90 89 82 80 78 75 66 69 81 79 69 72 67 69 78 83 81 86 100 89 85 84 93 114 117 118 112 121
186 137 163 179 185 161 154 145 146 127 116 104 97 89 89 97 102 94 87 80 82 81 75 69 80 80 74 83 74 79 81 83 89 97 105 99 93 92 87 118 134 120 117
169 161 170 196 189 173 167 163 163 141 125 117 109 101 97 111 97 76 91 97 75 73 75 84 83 93 68 117 90 86 79 81 77 77 80 76 68 71 51 238 170 178 163
58 59 93 99 204 190 173 166 163 154 137 129 114 102 101 91 116 67 65 123 119 104 77 63 76 80 73 83 96 95 86 93 94 79 94 85 70 42 35 51 34 358 146
33 9 325 99 165 164 164 170 164 153 144 129 115 102 114 101 96 72 79 107 139 137 113 73 63 63 71 100 102 120 125 111 126 148 188 116 110 68 30 41 50 48 55
53 66 77 104 142 153 154 154 154 150 142 134 130 116 103 98 93 79 66 84 98 97 96 85 76 72 71 84 100 103 97 328 295 282 87 65 50 55 38 53 55 62 70
89 90 92 99 111 123 131 140 143 146 143 137 139 115 98 94 90 74 74 89 110 113 113 106 98 91 81 68 76 32 357 343 9 71 71 71 61 49 302 160 72 96 105
98 94 97 99 104 111 117 121 133 143 141 147 140 132 127 108 89 70 67 80 94 106 107 105 103 104 93 90 36 40 20 31 42 39 50 41 64 45 39 356 357 240 185
103 101 98 102 103 104 102 102 109 114 133 137 134 140 136 118 127 131 133 131 159 139 146 202 189 214 207 154 104 42 42 25 44 25 21 20 29 21 96 6 340 333 335
119 116 114 110 108 105 102 97 93 98 108 116 135 147 143 153 195 189 175 163 179 197 255 279 210 336 16 40 48 159 166 100 51 21 21 12 12 16 339 23 338 334 349
126 133 132 131 129 129 120 112 109 92 96 113 130 142 143 147 151 162 174 192 213 228 287 302 63 70 34 25 356 11 64 43 36 342 344 2 351 320 328 306 313 300 300
149 154 144 150 152 150 149 141 143 137 119 97 95 110 121 131 146 166 184 202 244 235 258 298 96 89 24 12 351 1 29 0 241 270 327 305 315 326 319 321 321 43 342
167 160 137 115 112 116 124 121 118 124 124 131 140 140 149 148 175 209 229 257 291 284 236 170 198 268 246 280 330 329 318 306 325 327 298 304 298 318 324 301 310 296 280
95 112 120 133 154 142 122 109 114 134 158 166 178 150 161 181 229 232 232 251 286 301 335 327 294 203 223 242 251 254 283 284 261 254 269 270 282 283 288 310 319 312 238
129 156 188 143 123 111 101 90 75 104 117 104 123 148 182 189 249 225 210 214 226 277 310 331 324 322 314 234 236 234 249 274 292 290 257 271 285 264 278 294 299 286 280
142 180 185 111 115 115 81 131 178 128 256 185 164 182 184 207 250 298 296 256 282 270 259 293 292 296 310 310 308 267 250 265 274 273 272 250 265 283 283 268 272 278 284
169 150 113 139 111 91 224 320 8 330 312 332 37 167 181 202 223 240 248 255 257 261 265 246 263 280 279 280 271 265 268 268 267 277 298 303 306 299 282 271 265 271 272
165 101 90 86 92 344 21 0 321 335 328 305 313 177 194 240 268 259 254 261 273 271 274 257 249 251 259 269 277 268 260 259 254 260 271 264 277 289 286 283 272 269 275
70 62 59 39 331 308 320 337 344 9 319 292 358 321 290 331 330 331 323 307 306 323 296 299 310 276 269 258 252 261 270 277 263 246 254 257 264 281 283 281 281 287 288
135 83 57 33 15 357 342 320 290 290 303 346 304 287 347 324 276 307 324 14 350 322 338 301 291 318 304 310 333 318 333 288 262 266 261 259 261 269 274 275 268 264 265
Height
800 803 805 805 808 809 809 808 808 808 807 803 801 799 798 796 795 794 794 794 794 794 794 794 796 798 799 801 803 804 805 807 810 813 815 816 816 817 818 819 818 817 816
799 803 805 805 808 810 809 809 810 809 808 806 804 803 802 802 801 800 799 799 799 800 799 798 798 799 799 800 802 803 804 806 808 811 814 816 818 819 820 819 819 818 816
797 802 804 805 807 810 810 811 811 811 810 810 808 806 806 806 807 806 805 805 804 804 804 803 803 803 803 803 804 806 807 808 809 811 813 816 818 819 820 820 820 820 820
796 800 802 804 808 810 811 811 811 813 812 812 812 810 810 810 811 811 810 810 810 810 808 807 806 806 808 808 807 808 809 811 812 814 815 817 818 820 821 821 822 823 823
795 798 802 805 808 811 812 813 813 813 814 814 814 814 813 813 815 815 815 815 814 814 814 813 812 812 811 811 811 812 812 813 814 815 817 819 820 821 821 822 824 826 826
794 798 802 805 808 811 812 813 814 815 816 816 816 817 817 817 819 819 818 818 818 818 817 817 817 817 816 816 816 816 816 816 816 817 820 821 822 823 824 824 826 827 829
794 796 800 804 808 810 812 814 816 816 818 818 819 819 819 820 821 822 822 821 821 821 821 821 822 821 821 821 821 820 819 820 821 821 822 822 822 823 824 826 827 828 829
794 796 798 802 805 809 811 815 818 817 818 819 820 822 822 823 823 823 824 825 824 824 824 825 825 825 825 825 824 823 823 823 823 824 825 825 825 825 825 826 827 828 830
794 797 799 801 804 808 810 814 818 818 819 820 822 824 824 825 825 825 824 825 827 828 828 828 828 827 827 827 826 827 827 827 827 826 827 828 829 827 826 826 827 828 829
796 798 799 801 803 807 809 813 816 819 820 821 823 825 826 826 826 826 825 826 827 829 830 830 830 830 829 829 829 829 830 830 830 829 828 829 830 831 829 826 826 825 827
801 799 800 800 803 805 808 812 814 818 820 822 824 826 827 827 828 828 827 827 828 828 829 831 832 832 831 830 830 831 831 831 831 830 830 830 831 830 831 829 827 827 828
804 803 803 803 805 806 808 812 815 817 820 823 824 825 827 827 828 829 829 829 829 830 831 832 833 834 833 832 832 833 833 832 831 832 830 831 833 833 833 833 831 830 830
805 805 805 806 807 809 810 813 815 817 820 823 825 827 829 828 829 831 831 832 832 832 833 834 836 836 836 835 834 834 834 833 832 832 832 833 834 834 834 834 833 833 833
806 808 809 809 810 813 814 816 818 819 822 824 826 828 830 831 833 832 833 834 835 835 835 836 836 837 837 837 836 836 835 835 834 835 834 835 834 834 834 835 833 833 834
809 811 812 813 815 817 817 820 821 823 825 826 828 830 832 833 833 835 835 836 837 837 837 837 836 836 836 836 837 837 837 837 838 837 836 835 835 835 835 835 835 833 833
811 813 815 816 818 820 821 823 825 826 827 829 831 832 832 833 834 835 836 836 837 837 837 835 835 835 835 836 836 836 836 838 838 838 837 837 836 837 837 836 835 834 833
812 814 816 818 820 822 823 825 828 829 830 832 833 833 834 834 835 836 836 837 837 838 837 835 834 835 836 837 837 837 837 838 839 840 839 839 837 838 837 836 836 834 833
812 813 814 816 817 819 821 824 826 828 833 835 835 835 836 836 837 837 837 838 837 836 835 834 834 836 837 837 838 838 838 839 839 839 839 839 838 837 836 835 834 834 833
811 811 813 815 816 818 820 821 823 826 830 834 835 836 836 837 838 838 838 838 837 835 833 833 834 836 837 838 838 838 839 838 838 838 838 838 837 837 835 834 834 833 833
811 813 816 817 818 819 820 822 825 827 828 829 831 833 836 837 837 837 836 837 836 833 832 833 833 834 834 835 836 837 837 837 836 836 836 836 836 835 835 834 833 832 832
814 817 816 816 817 819 821 822 824 824 825 826 828 830 831 833 833 832 832 832 832 832 832 832 833 833 833 833 833 833 834 834 834 834 834 834 833 833 833 832 831 830 830
815 816 815 816 820 820 821 822 822 822 822 822 824 826 827 830 830 829 829 829 830 830 831 832 833 833 832 831 832 831 831 832 832 831 831 830 830 830 829 829 828 828 827
815 814 816 818 819 822 823 822 822 822 821 821 821 823 826 827 827 827 826 826 826 827 828 828 829 830 829 829 828 829 829 829 829 828 827 827 827 827 826 825 825 824 823
814 816 817 819 821 822 822 822 823 822 823 822 821 820 822 823 823 822 823 824 824 824 824 825 825 825 825 825 826 825 825 824 824 825 824 824 824 824 823 822 821 820 819
816 817 818 821 822 822 821 821 821 821 821 820 820 821 824 819 820 819 821 821 821 821 820 823 823 821 820 820 820 821 820 820 820 820 820 820 821 820 819 818 816 815 814
817 819 820 821 822 822 821 820 820 819 819 820 819 819 820 820 819 818 817 819 820 819 819 818 818 820 816 819 816 813 815 816 815 814 814 814 815 815 815 813 812 810 809